Regional Weather Roundup
Issued by NWS

Home | Current Version | Previous Version | Text Only | Print | Product List | Glossary On
Versions: 1 2 3 4 5 6 7 8 9 10 11 12 13 14 15 16 17 18 19 20 21 22 23 24 25 26 27 28 29 30 31 32 33 34 35 36 37 38 39 40 41 42 43 44 45 46 47 48 49 50
000
ASUS43 KMKX 260921
RWRWI

WISCONSIN REGIONAL WEATHER ROUNDUP
NATIONAL WEATHER SERVICE MILWAUKEE/SULLIVAN WI
400 AM CDT MON SEP 26 2016

NOTE: "FAIR" INDICATES FEW OR NO CLOUDS BELOW 12,000 FEET WITH NO
SIGNIFICANT WEATHER AND/OR OBSTRUCTIONS TO VISIBILITY.

WIZ001-002-006>008-014>016-023>028-261000-
NORTHWEST WISCONSIN

CITY           SKY/WX    TMP DP  RH WIND       PRES   REMARKS
SUPERIOR ARPT  CLOUDY    50  49  93 W17       29.73F
ASHLAND        CLOUDY    50  48  93 SW17G25   29.71F FOG
HAYWARD        LGT RAIN  49  47  93 W10G23    29.78S FOG
SIREN          LGT RAIN  50  46  85 W14G22    29.84S
CUMBERLAND     DRIZZLE   48  45  87 W17G28    29.84F
RICE LAKE      DRIZZLE   51  45  79 W13G22    29.86S
CHETEK         NOT AVBL
LADYSMITH      CLOUDY    52  45  76 W13G23    29.83S
EAU CLAIRE     MOCLDY    54  43  66 W13G22    29.87F
MENOMONIE      CLEAR     54  44  68 W16       29.89S
NEW RICHMOND   PTCLDY    51  43  74 W10       29.90S
OSCEOLA        PTCLDY    53  45  73 W9        29.92F
$$

WIZ003>005-009-010-017-018-261000-
NORTH CENTRAL WISCONSIN

CITY           SKY/WX    TMP DP  RH WIND       PRES   REMARKS
MANITOWISH WTR NOT AVBL
ARBOR VITAE    CLOUDY    52  49  89 SW10G18   29.75F
WOODRUFF       CLOUDY    52  49  89 SW10G18   29.75F
RHINELANDER    CLOUDY    49  46  90 W15       29.78F
EAGLE RIVER    CLOUDY    49  48  95 W18G25    29.74F
LAND O LAKES   CLOUDY    51  46  83 W7        29.74F
PHILLIPS       CLOUDY    49  45  86 SW8       29.77F
TOMAHAWK       CLOUDY    49  42  77 W6        29.80F
MEDFORD        CLOUDY    50  45  84 W12G18    29.82F
MERRILL        CLOUDY    50  44  79 W10G17    29.82F
$$

WIZ029-030-035-036-043>047-261000-
CENTRAL WISCONSIN

CITY           SKY/WX    TMP DP  RH WIND       PRES   REMARKS
WAUSAU         CLOUDY    51  43  74 W9G20     29.82F
MOSINEE        PTCLDY    48  43  81 SW13      29.85F
MARSHFIELD     CLEAR     50  42  74 W12       29.85F
STEVENS POINT  CLEAR     50  43  77 W15G22    29.86F
WAUPACA        CLOUDY    55  46  71 SW8       29.87S
WAUTOMA        PTCLDY    54  47  77 SW13      29.89F
WISC RAPIDS    CLEAR     52  46  80 W9        29.89F
CAMP DOUGLAS   CLEAR     53  47  82 SW10      29.91F
$$

WIZ011>013-019>022-031-037>040-048>050-261000-
NORTHEAST WISCONSIN

CITY           SKY/WX    TMP DP  RH WIND       PRES   REMARKS
ANTIGO         CLOUDY    49  44  83 W16       29.81F
SHAWANO        CLOUDY    55  45  69 W9G18     29.83F
OCONTO         NOT AVBL
STURGEON BAY   CLOUDY    57  51  80 W13       29.79F
GREEN BAY      CLOUDY    56  49  77 SW8       29.84R
MANITOWOC      CLOUDY    58  46  64 MISG      29.85R
APPLETON       CLOUDY    54  41  62 W15       29.84F
CLINTONVILLE   NOT AVBL
OSHKOSH        CLOUDY    57  44  62 W8G17     29.87S
$$

WIZ032>034-041-042-053>061-261000-
SOUTHWEST WISCONSIN

CITY           SKY/WX    TMP DP  RH WIND       PRES   REMARKS
LA CROSSE      CLEAR     57  45  64 W13       29.94F
SPARTA         CLEAR     51  48  88 SW5       29.93F
VIROQUA        CLEAR     50  46  84 W8        29.96S
BOSCOBEL       CLEAR     55  47  74 SW8       29.98F
PRAIRIE DU CHI CLEAR     54  44  68 W6        29.99S
PLATTEVILLE    PTCLDY    53  49  89 W8        30.00F
$$

WIZ056-057-062-063-064-067-068-261000-
SOUTH CENTRAL WISCONSIN

CITY           SKY/WX    TMP DP  RH WIND       PRES   REMARKS
REEDSBURG      NOT AVBL
BARABOO/DELLS  PTCLDY    53  47  81 W6        29.94S
LONE ROCK      CLEAR     54  49  83 W8        29.97R
MINERAL POINT  PTCLDY    54  50  87 W6        29.98F
MADISON        MOCLDY    57  49  74 VRB3      29.94F
MIDDLETON      MOCLDY    56  50  80 W9        29.94F
WATERTOWN      CLOUDY    56  50  79 W7        29.93S
MONROE         CLOUDY    55  50  82 W10       29.97F
JANESVILLE     CLOUDY    59  50  72 W7        29.96F
$$

WIZ051-052-058>065-066-070>072-261000-
SOUTHEAST WISCONSIN

CITY           SKY/WX    TMP DP  RH WIND       PRES   REMARKS
MILWAUKEE      CLOUDY    61  50  67 W9G20     29.92S
WAUKESHA       CLOUDY    55  46  71 W12       29.94S
MILWAUKEE/TIMM CLOUDY    57  46  67 W12       29.93R
RACINE         CLOUDY    60  50  69 W8        29.94S
BURLINGTON     CLOUDY    56  48  74 W7        29.95R
KENOSHA        CLOUDY    59  52  77 W9        29.94S
FOND DU LAC    CLOUDY    57  45  64 W9        29.89F
SHEBOYGAN      CLOUDY    58  46  64 W12G18    29.87F
WEST BEND      CLOUDY    55  48  76 W14G21    29.90S
JUNEAU         CLOUDY    55  48  79 SW8       29.92F
$$

LSZ147-162-261000-
LAKE SUPERIOR

STATION/POSITION TIME  TEMP    WIND        PRES    WAVE
                       AIR SEA DIR/SP/G            HT/PER
                 (UTC) (F)     (DEG/KT/KT) (MB)    (FT/S)
W MID LAKE BUOY  0850   56 59  240/ 25/ 31 1001.9F   7/ 7
DEVILS ISLAND    0900   53     230/ 28/ 33 1003.4F
SAXON HARBOR     0840   53     220/  9/ 17 1005.8F
$$

LMZ867-665-643>646-261000-
LAKE MICHIGAN

STATION/POSITION TIME  TEMP    WIND        PRES    WAVE
                       AIR SEA DIR/SP/G            HT/PER
                 (UTC) (F)     (DEG/KT/KT) (MB)    (FT/S)
CHAMBERS ISLAND  0800   60     220/  7/ 18 1008.1F
N MID LAKE BUOY  0850   62 67  250/ 23/ 27 1006.0F   4/ 6
NORTHPORT PIER   0800   60     270/  7/ 17 1008.1S
KEWAUNEE LAKESHO 0800   59     270/ 10/ 15 1009.3F
SHEBOYGAN LAKESH 0900   60     270/ 11/ 14 1011.2F
PORT WASHINGTON  0840   61     280/  7/ 13 1012.9S
ATWATER BUOY     0900   59 53  260/ 14/ 16 1013.1R
MILWAUKEE LAKESH 0810   61     270/ 14/ 16   N/A
S MID LAKE BUOY  0850   64 71  280/ 19/ 23 1012.0R   4/ 4
KENOSHA   LAKESH 0900   61     280/  8/ 14 1013.5S
$$

TC  - TEMPERATURE IN CELSIUS
VSB - VISIBILITY IN STATUTE MILES
WCI - WIND CHILL INDEX
HX  - HEAT INDEX





USA.gov is the U.S. government's official web portal to all federal, state and local government web resources and services.